Location: El Diablo
(32.4667°N, 116.4500°W)
Time: 01:06:07
(UTC+00:00)

Cosmos 1763 Rocket - Pass Details

Date: 10 September 2024
Orbit: 730 x 776 km, 74.0° (Epoch: 06 October)

Event Time Altitude Azimuth Distance (km) Brightness Sun altitude
Rises 12:38:08 0° 330° (NNW) 3,191 6.5 -11.0°
Reaches altitude 10° 12:40:44 10° 319° (NW) 2,271 5.7 -10.4°
Maximum altitude 12:45:08 29° 260° (W) 1,355 4.2 -9.5°
Drops below altitude 10° 12:49:34 10° 201° (SSW) 2,286 5.7 -8.6°
Sets 12:52:12 0° 191° (S) 3,216 6.5 -8.1°
